Regional Weather Roundup
Issued by NWS Green Bay, WI

Home | Current Version | Previous Version | Text Only | Print | Product List | Glossary On
Versions: 1 2 3 4 5 6 7 8 9 10 11 12 13 14 15 16 17 18 19 20 21 22 23 24 25 26 27 28 29 30 31 32 33 34 35 36 37 38 39 40 41 42 43 44 45 46 47 48 49 50
000
ASUS43 KGRB 211511
RWRGRB

NORTH-CENTRAL AND NORTHEAST WISCONSIN REGIONAL WEATHER ROUNDUP
NATIONAL WEATHER SERVICE GREEN BAY WI
1000 AM CDT FRI JUL 21 2017

WIZ005-009-010>012-018-019-211600-
NORTH CENTRAL WISCONSIN

CITY           SKY/WX    TMP DP  RH WIND       PRES   REMARKS
IRONWOOD       CLOUDY    74  65  73 W3        30.00R
MANITOWISH WTR MOSUNNY   76  68  74 S6        30.00F
ARBOR VITAE    SUNNY     77  66  68 S5        30.00S
EAGLE RIVER    CLOUDY    77  64  65 SW3       30.01F
LAND O LAKES   CLOUDY    77  61  58 SW5       30.02F
RHINELANDER    SUNNY     78  65  63 S7        30.01F
PHILLIPS       CLOUDY    75  67  77 S5        29.99F
ANTIGO         SUNNY     77  64  64 S7        30.02F
TOMAHAWK         N/A     77  65  67 S3        30.01S
MERRILL        SUNNY     77  68  74 SE3       30.00F
$$

WIZ013-073-211600-
NORTHEAST WISCONSIN

CITY           SKY/WX    TMP DP  RH WIND       PRES   REMARKS
IRON MOUNTAIN  CLOUDY    77  63  61 CALM      29.98R
MARINETTE      SUNNY     80  66  62 SW6       29.98S
OCONTO         SUNNY     80  68  67 CALM      29.97R
$$

WIZ017-030-035>037-045-211600-
CENTRAL WISCONSIN

CITY           SKY/WX    TMP DP  RH WIND       PRES   REMARKS
MEDFORD        SUNNY     76  65  67 SE6       29.99F
WAUSAU         SUNNY     79  64  60 SE9       29.98F
MOSINEE        MOSUNNY   79  66  65 SE6       30.01S
MARSHFIELD     CLOUDY    77  65  66 E7        29.99S
WISC RAPIDS    CLOUDY    79  67  66 S6        29.99F
STEVENS POINT  CLOUDY    78  63  59 SE8       30.00S
WAUPACA        MOSUNNY   82  66  60 S3        29.99R
SHAWANO        SUNNY     82  66  58 SW3       29.99R
CLINTONVILLE   SUNNY     79  64  61 CALM      29.98S
WAUTOMA        CLOUDY    78  69  73 SE6       29.98
$$

WIZ038-039-048-051-211600-
FOX VALLEY

CITY           SKY/WX    TMP DP  RH WIND       PRES   REMARKS
NWS GREEN BAY  SUNNY     81  70  69 S6        29.98S
APPLETON       PTSUNNY   81  61  50 SE6       29.98S
OSHKOSH        CLOUDY    79  68  69 S3        29.98R
FOND DU LAC    MOSUNNY   81  67  62 E3        29.98R
$$

WIZ022-050-052-211600-
EAST CENTRAL WISCONSIN

CITY           SKY/WX    TMP DP  RH WIND       PRES   REMARKS
EPHRAIM        FAIR      79  66  65 CALM      29.97S
WASHINGTON ISL PTSUNNY   72  67  83 SW6       29.97S
STURGEON BAY     N/A     81  64  56 SW9       29.98S
MANITOWOC      MOSUNNY   83  61  47 S7        29.98F
SHEBOYGAN      CLOUDY    80  71  74 SE3       29.98S
$$

LMZ563-521-522-541>543-211600-
LAKESHORE

STATION/POSITION TIME  TEMP    WIND        PRES    VSBY  WAVE
                       AIR SEA DIR/SP/G                  HT/PER
                 (UTC) (F)     (DEG/KT/KT) (MB)    (MI)  (FT/S)
SHEBOYGAN LKSHOR 1500   72      CALM  /  1 1014.6R
KEWAUNEE LKSHORE 1448   73     160/  4/  5 1014.2F
NORTHPORT PIER   1440   71     340/  6/  6 1014.6S
N MID LAKE BUOY  1450   65 66  230/  6/  6 1015.1R         1/ 3
S GREEN BAY BUOY 1500   73 73  230/  6/  6 1014.8
SISTER BAY LKSHO 1403   75      60/  6/  7   N/A
CHAMBERS ISLAND  1440   76     220/  4/  5 1014.2S
MENOMINEE LKSHOR 1448   79     190/  4/  7 1014.5S
$$




USA.gov is the U.S. government's official web portal to all federal, state and local government web resources and services.